Content
SEND FEEDBACK

Daily
Averages
Monthly
Summary
United States of America

MERCER, MISSOURI


Home > North America > United States > Missouri
Elevation: 900 feet     Latitude: 40 33N     Longitude: 093 36W

WEATHER
 
SELECT A DAY
Number of Records: 176,641;   Date Range: 1/1/95 - 12/27/14
 
SHARE

PRINT THIS DATA

[ ← Previous Day ]
WEATHER ALMANAC - FEBRUARY 5, 2013
[ Next Day → ]
[ °C ]   °F
Weather ElementAverageHighLow
Temperature33.1 °F45 °F (2:53 pm)21.9 °F (1:53 am)
Dewpoint25.6 °F32 °F (1:53 pm)18 °F (1:53 am)
Humidity75.1 %89 % (5:53 am)60 % (2:53 pm)
Barometer29.99 in30.12 in (9:53 pm)29.89 in (5:53 am)
Wind Speed9 mph18.4 mph (1:53 pm)
Weather ElementAverage
Visibility9.5 mi
Wind DirectionSW (227.4 °)

Weather ElementTotal
Precipitation---
Heating Degree Days31.6 (Base 65)
Averaged from 23 records on February 5, 2013
WEATHER CONDITIONS BREAKOUT
WIND DIRECTION BREAKOUT
WEATHER BY HOUR - FEBRUARY 5, 2013
[ °C ]   °F
Local TimeTemperatureDewpointHumidityBarometerVisibilityWind DirectionWind SpeedGust SpeedPrecipitationEventsConditions
1:53 AM21.9 °F18.0 °F85 %29.94 in10.0 miSSW (200°)6.9 mphOvercast
2:53 AM23.0 °F18.0 °F81 %29.92 in10.0 miSSW (210°)9.2 mphOvercast
3:53 AM23.0 °F19.0 °F85 %29.90 in9.0 miSSW (200°)6.9 mphOvercast
4:53 AM23.0 °F19.0 °F85 %29.91 in9.0 miSSW (210°)6.9 mphOvercast
5:53 AM21.9 °F19.0 °F89 %29.89 in8.0 miSSW (200°)10.4 mphClear
6:53 AM23.0 °F19.9 °F88 %29.89 in9.0 miSW (220°)9.2 mphClear
7:53 AM24.1 °F19.9 °F84 %29.90 in7.0 miSW (230°)5.8 mphClear
8:53 AM27.0 °F23.0 °F85 %29.91 in7.0 miWest (260°)11.5 mphClear
9:53 AM32.0 °F25.0 °F75 %29.92 in10.0 miWest (280°)13.8 mph
10:53 AM37.0 °F27.0 °F67 %29.94 in10.0 miWest (280°)15.0 mphClear
11:53 AM39.9 °F28.9 °F65 %29.95 in10.0 miWNW (300°)15.0 mphClear
12:53 PM43.0 °F30.9 °F62 %29.96 in10.0 miNW (320°)17.3 mphClear
1:53 PM44.1 °F32.0 °F63 %29.97 in10.0 miNW (320°)18.4 mphClear
2:53 PM45.0 °F32.0 °F60 %29.99 in10.0 miNW (310°)16.1 mphClear
3:53 PM45.0 °F32.0 °F60 %30.01 in10.0 miNW (310°)11.5 mphClear
4:53 PM43.0 °F30.0 °F60 %30.03 in10.0 miNW (310°)9.2 mphClear
5:53 PM39.0 °F28.9 °F67 %30.04 in10.0 miNW (320°)6.9 mphClear
6:53 PM36.0 °F28.0 °F73 %30.07 in10.0 miNorth (360°)6.9 mphClear
7:53 PM36.0 °F27.0 °F70 %30.10 in10.0 miCalmClear
8:53 PM33.1 °F27.0 °F78 %30.10 in10.0 miCalmClear
9:53 PM32.0 °F27.0 °F82 %30.12 in10.0 miSouth (170°)3.5 mphClear
10:53 PM35.1 °F28.9 °F78 %30.11 in10.0 miSSE (150°)3.5 mphClear
11:53 PM33.1 °F28.9 °F85 %30.12 in10.0 miENE (70°)3.5 mphClear
Hourly data recorded from KLWD, located miles away from Mercer, Missouri







STORIES FROM OUR PARTNERS